STARLINK-1767 (46345 NORAD) Tracking and Keplerian Element Data

This shows tracking and keplerian element data for the satellite.

Feedback or suggestion? Click here.




ElementValue
Catalog46345
NameSTARLINK-1767
Epoch Orbit179
Epoch Day335.91670139
Epoch Year2020
RAAN17.2616
Inclination52.9991
Eccentricity0.000129
Argument of Perigee70.0443
Mean Anonmoly247.3247
Mean Motion15.05556708
Decay Rate0.00021467
L11 46345U 20062W 20335.91670139 .00021467 00000-0 14889-2 0 9993
L22 46345 52.9991 17.2616 0001290 70.0443 247.3247 15.05556708 1790

Live tracking and technical data element details for STARLINK-1767 (NORAD 46345). STARLINK-1767 can be tracked NOW for your location showing map with azimuth and elevation plus other details from your city location.

Track the satellite on the map from your city or location and see movement details for azimuth, elevation, latitude, longitude, range, height, and movement on the map or in text.







IsCatalogInMostPopularTable: catalog: 46345, numindb: 17
Update: records affected: 1



GetName: 46345 STARLINK-1767

Hit Count: updated at: Wed, 02 Dec 2020 06:19:57 GMT